Regional Weather Roundup
Issued by NWS Boston, MA

Home | Current Version | Previous Version | Text Only | Print | Product List | Glossary On
Versions: 1 2 3 4 5 6 7 8 9 10 11 12 13 14 15 16 17 18 19 20 21 22 23 24 25 26 27 28 29 30 31 32 33 34 35 36 37 38 39 40 41 42 43 44 45 46 47 48 49 50
000
ASUS41 KBOX 070110
RWRBOX

REGIONAL WEATHER ROUNDUP
NATIONAL WEATHER SERVICE TAUNTON MA
800 PM EST FRI MAR 06 2015

NOTE:  "FAIR" INDICATES FEW OR NO CLOUDS BELOW 12,000 FEET WITH NO
SIGNIFICANT WEATHER AND/OR OBSTRUCTIONS TO VISIBILITY.  THE FOLLOWING
OBSERVATION LOCATIONS DO NOT REPORT PRESENT WEATHER...PROVINCETOWN...
SMITHFIELD...BLOCK ISLAND...KEENE...AND OXFORD.

MAZALL-070200-
EASTERN MASSACHUSETTS

CITY           SKY/WX    TMP DP  RH WIND       PRES   REMARKS
BOSTON         MOCLDY    21   4  47 SW13      30.36F WCI   9
BEVERLY        CLEAR     21   1  41 S9        30.34F WCI  11
LAWRENCE       CLEAR     21   3  45 S7        30.34F WCI  12
BEDFORD        CLEAR     20   2  45 S10       30.33F WCI   9
BLUE HILL        N/A     17   5  59 S16G23    30.30F WCI   2
NORWOOD        CLEAR     19   6  57 S6        30.37F WCI  11
MARSHFIELD     CLEAR     19   9  63 S6        30.40F WCI  11
PLYMOUTH       CLEAR     16   7  67 S5        30.38F WCI   9
TAUNTON        CLEAR     17   5  59 S3        30.38F
NEW BEDFORD    CLEAR     14   6  70 SW3       30.39F
$$

MAZALL-070200-
CAPE COD AND THE ISLANDS

CITY           SKY/WX    TMP DP  RH WIND       PRES   REMARKS
FALMOUTH       PTCLDY    12   7  79 CALM      30.39F
HYANNIS        CLEAR     15   7  70 SW7       30.38F WCI   5
CHATHAM        CLEAR     13   9  84 W3        30.40F
PROVINCETOWN   CLEAR     21   7  53 SW13      30.39S WCI   9
NANTUCKET      CLEAR     16  10  77 W3        30.40F
MARTHAS VNYRD  CLEAR      8   3  80 CALM      30.39F
$$

MAZALL-070200-
CENTRAL AND WESTERN MASSACHUSETTS

CITY           SKY/WX    TMP DP  RH WIND       PRES   REMARKS
WORCESTER      PTCLDY    18  -6  34 SW9       30.27F WCI   7
FITCHBURG      PTCLDY    22  -4  32 SW5       30.32F WCI  16
ORANGE         PTCLDY    16   0  49 CALM      30.30F
SPRINGFIELD    MOCLDY    20   1  43 S10       30.32F WCI   9
WESTFIELD      MOCLDY    21   1  41 S5        30.33F WCI  15
NORTH ADAMS    CLOUDY    13   1  59 CALM      30.29F
PITTSFIELD     MOCLDY    16  -1  47 CALM      30.24F
$$

RIZALL-070200-
RHODE ISLAND

CITY           SKY/WX    TMP DP  RH WIND       PRES   REMARKS
PROVIDENCE     PTCLDY    17   5  59 SW8       30.39F WCI   7
NEWPORT        CLEAR     19   8  62 S5        30.39F WCI  12
BLOCK ISLAND   CLEAR     19   7  58 SW7       30.38F WCI  10
SMITHFIELD     CLEAR     18   3  53 SW5       30.33F WCI  11
WESTERLY       CLEAR     19   7  59 SW5       30.40F WCI  12
$$

CTZALL-070200-
CONNECTICUT

CITY           SKY/WX    TMP DP  RH WIND       PRES   REMARKS
BRADLEY INTL   MOCLDY    22   7  52 S12       30.34F WCI  10
HARTFORD       MOCLDY    20   8  60 S8        30.38F WCI  10
BRIDGEPORT     PTCLDY    23  13  65 SW14      30.40F WCI  11
DANBURY        MOCLDY    21   2  43 S7        30.36S WCI  12
GROTON         CLEAR     20   7  57 SW13      30.39F WCI   7
NEW HAVEN      FAIR      24  10  55 SW9       30.39F WCI  14
CHESTER        FAIR      21   7  53 SW5       30.36F WCI  15
MERIDEN        PTCLDY    20   7  57 S3        30.38F
WILLIMANTIC    PTCLDY    20   5  52 S3        30.38S
OXFORD         CLEAR     19   1  45 SW6       30.34  WCI  11
$$

MEZ002-015-021-024-NHZ003-005-008-011-012-014-VTZ005-008-070200-
NORTHERN NEW ENGLAND

CITY           SKY/WX    TMP DP  RH WIND       PRES   REMARKS
PORTLAND ME    CLEAR     22   3  44 SW7       30.31F WCI  13
BANGOR ME      CLEAR     16   0  49 S13       30.27F WCI   2
CONCORD NH     PTCLDY    19  -4  36 S6        30.29F WCI  11
MANCHESTER NH  PTCLDY    22  -1  36 S7        30.29F WCI  13
NASHUA NH      PTCLDY    16   5  61 CALM      30.33F
PORTSMOUTH NH  PTCLDY    19   6  59 S7        30.30F WCI   9
JAFFREY NH     FAIR      17  -4  39 S8        30.25F WCI   7
KEENE NH       PTCLDY    16   0  48 S3        30.29F
BURLINGTON VT  CLEAR     19  -2  39 S12       30.24F WCI   7
MT. WASHINGTON MOCLDY    -4 -15  59 W36         N/A  WCI -33
$$

NYZ052-076-070200-
EASTERN NEW YORK

CITY           SKY/WX    TMP DP  RH WIND       PRES   REMARKS
ALBANY         MOCLDY    20   3  48 CALM      30.32F
NEW YORK CITY  MOCLDY    25   8  48 SW13      30.40F WCI  14
$$

ANZALL-070200-
MARINE OBSERVATIONS

STATION/POSITION TIME  TEMP    WIND        PRES    VSBY  WAVE
                       AIR SEA DIR/SP/G                  HT/PER
                 (UTC) (F)     (DEG/KT/KT) (MB)    (MI)  (FT/S)
BOSTON BUOY      0050   23 36  200/ 17/ 19 1028.2F         3/ 3
BUZZARDS BAY     0000          200/  9/ 10 1030.3F
NANTUCKET SOUND  0050   24 32  240/  6/  8 1029.7F         1
MASS BAY-STELLWA 0004   26 35  190/ 16/ 17   N/A    1 7/8  3/ 3
ISLE OF SHOALS   0100   25     200/ 19/ 22 1026.1F
S OF BLOCK IS    0008      36                N/A           2/10
$$

......................KEY.........................
  SKY/WX - SKY CONDITION/PRESENT WEATHER
  TMP    - TEMPERATURE IN FAHRENHEIT
  DWPT   - DEWPOINT IN FAHRENHEIT
  RH     - RELATIVE HUMIDITY IN PERCENT
  WIND   - DIRECTION AND SPEED IN MPH
  PRES   - MEAN SEA LEVEL PRESSURE IN INCHES OF HG
  WCI    - WIND CHILL INDEX
  VSB    - VISIBILITY IN MILES
  HX     - HEAT INDEX
  TC     - TEMPERATURE IN CELSIUS
  VRB    - VARIABLE WIND DIRECTION
  N/A    - NOT AVAILABLE


USA.gov is the U.S. government's official web portal to all federal, state and local government web resources and services.